Weather History for KCWA - September, 2013

Change the Weather History Date:

Wednesday, September 4, 2013

  Actual Average Record
Temperature  
Mean Temperature 64 °F -  
Max Temperature 75 °F 73 °F 87 °F (1999)
Min Temperature 53 °F 51 °F 42 °F (1997)
Degree Days  
Heating Degree Days 1    
Growing Degree Days 14 (Base 50)    
Moisture  
Dew Point 56 °F    
Average Humidity 81    
Maximum Humidity 94    
Minimum Humidity 65    
Precipitation  
Precipitation 0.00 in - - ()
Sea Level Pressure  
Sea Level Pressure 30.09 in    
Wind  
Wind Speed 6 mph (WNW)    
Max Wind Speed 12 mph    
Max Gust Speed -    
Visibility 10 miles    
Events      
Averages and records for this station are not official NWS values.
T = Trace of Precipitation, MM = Missing Value Source: NWS Daily Summary

Daily Weather History Graph

Daily Weather History Graph

Search for Another Location

Airport or City:

Trip Planner

Search our weather history database for the weather conditions in past years. The results will help you decide how hot, cold, wet, or windy it might be!

Date:

Astronomy

Sep. 04, 2013 Rise Set
Actual Time 6:24 AM CDT 7:29 PM CDT
Civil Twilight 5:54 AM CDT 7:59 PM CDT
Nautical Twilight 5:18 AM CDT 8:35 PM CDT
Astronomical Twilight 4:41 AM CDT 9:12 PM CDT
Moon 5:37 AM CDT (9/4) 6:47 PM CDT (9/4)
Length of Visible Light 14h 04m
Length of Day
13h 04m
Waning Crescent, 1% of the Moon is Illuminated
Sep 4
Waning Crescent
Sep 5
New
Sep 12
First Quarter
Sep 19
Full
Sep 26
Last Quarter

Hourly Weather History & Observations

Time (CDT) Temp. Dew Point Humidity Pressure Visibility Wind Dir Wind Speed Gust Speed Precip Events Conditions
12:15 AM 55.4 °F 51.8 °F 88% 30.04 in 10.0 mi West 6.9 mph - N/A   Clear
12:35 AM 55.4 °F 51.8 °F 88% 30.04 in 10.0 mi West 8.1 mph - N/A   Clear
12:55 AM 57.2 °F 51.8 °F 82% 30.04 in 7.0 mi West 11.5 mph - N/A   Clear
1:15 AM 57.2 °F 51.8 °F 82% 30.04 in 10.0 mi West 6.9 mph - N/A   Clear
1:35 AM 55.4 °F 51.8 °F 88% 30.03 in 10.0 mi West 4.6 mph - N/A   Clear
1:55 AM 55.4 °F 51.8 °F 88% 30.03 in 10.0 mi West 4.6 mph - N/A   Clear
2:15 AM 55.4 °F 51.8 °F 88% 30.03 in 7.0 mi West 6.9 mph - N/A   Clear
2:35 AM 55.4 °F 51.8 °F 88% 30.03 in 10.0 mi West 6.9 mph - N/A   Clear
2:55 AM 55.4 °F 51.8 °F 88% 30.03 in 10.0 mi West 5.8 mph - N/A   Clear
3:15 AM 55.4 °F 51.8 °F 88% 30.03 in 7.0 mi West 5.8 mph - N/A   Clear
3:35 AM 55.4 °F 51.8 °F 88% 30.03 in 7.0 mi West 5.8 mph - N/A   Clear
3:55 AM 55.4 °F 51.8 °F 88% 30.04 in 7.0 mi West 6.9 mph - N/A   Clear
4:15 AM 55.4 °F 51.8 °F 88% 30.04 in 10.0 mi West 5.8 mph - N/A   Clear
4:35 AM 55.4 °F 51.8 °F 88% 30.05 in 10.0 mi West 4.6 mph - N/A   Clear
4:55 AM 53.6 °F 51.8 °F 94% 30.05 in 10.0 mi West 3.5 mph - N/A   Clear
5:15 AM 55.4 °F 51.8 °F 88% 30.05 in 10.0 mi West 5.8 mph - N/A   Clear
5:35 AM 55.4 °F 53.6 °F 94% 30.06 in 10.0 mi West 5.8 mph - N/A   Clear
5:45 AM 55.4 °F 53.6 °F 94% 30.06 in 10.0 mi West 5.8 mph - N/A   Clear
6:45 AM 57.2 °F 55.4 °F 94% 30.07 in 10.0 mi WSW 4.6 mph - N/A   Clear
7:45 AM 62.6 °F 57.2 °F 82% 30.09 in 10.0 mi West 6.9 mph - N/A   Clear
8:45 AM 64.4 °F 57.2 °F 77% 30.10 in 10.0 mi West 6.9 mph - N/A   Clear
9:45 AM 68.0 °F 60.8 °F 78% 30.10 in 10.0 mi NW 8.1 mph - N/A   Clear
10:45 AM 69.8 °F 62.6 °F 78% 30.12 in 10.0 mi NW 6.9 mph - N/A   Clear
11:45 AM 71.6 °F 62.6 °F 73% 30.13 in 10.0 mi Calm Calm - N/A   Clear
12:45 PM 73.4 °F 62.6 °F 69% 30.12 in 10.0 mi Calm Calm - N/A   Clear
1:45 PM 75.2 °F 62.6 °F 65% 30.11 in 10.0 mi WNW 5.8 mph - N/A   Scattered Clouds
2:45 PM 75.2 °F 62.6 °F 65% 30.12 in 10.0 mi Variable 4.6 mph - N/A   Scattered Clouds
3:50 PM 75.2 °F 62.6 °F 65% 30.11 in 10.0 mi Variable 4.6 mph - N/A   Scattered Clouds
4:45 PM 75.2 °F 62.6 °F 65% 30.11 in 10.0 mi Variable 4.6 mph - N/A   Scattered Clouds
5:45 PM 73.4 °F 62.6 °F 69% 30.11 in 10.0 mi Variable 4.6 mph - N/A   Scattered Clouds
6:45 PM 71.6 °F 62.6 °F 73% 30.11 in 10.0 mi Calm Calm - N/A   Scattered Clouds
7:45 PM 68.0 °F 59.0 °F 73% 30.13 in 10.0 mi NNE 3.5 mph - N/A   Clear
8:50 PM 64.4 °F 57.2 °F 77% 30.15 in 10.0 mi NNE 5.8 mph - N/A   Clear
9:45 PM 62.6 °F 57.2 °F 82% 30.16 in 10.0 mi NNE 4.6 mph - N/A   Clear
10:15 PM 60.8 °F 55.4 °F 82% 30.18 in 10.0 mi North 5.8 mph - N/A   Clear
10:35 PM 60.8 °F 55.4 °F 82% 30.18 in 7.0 mi NNE 6.9 mph - N/A   Clear
10:55 PM 60.8 °F 53.6 °F 77% 30.19 in 10.0 mi NE 5.8 mph - N/A   Clear
11:15 PM 59.0 °F 53.6 °F 82% 30.19 in 7.0 mi NNE 6.9 mph - N/A   Clear
11:35 PM 59.0 °F 53.6 °F 82% 30.19 in 10.0 mi NNE 8.1 mph - N/A   Clear
11:55 PM 59.0 °F 51.8 °F 77% 30.19 in 10.0 mi NNE 6.9 mph - N/A   Clear